Weather History for PAWD - September, 2011

Change the Weather History Date:

Tuesday, September 13, 2011

  Actual Average Record
Temperature  
Mean Temperature 50 °F -  
Max Temperature 55 °F 56 °F 69 °F (1997)
Min Temperature 46 °F 44 °F 34 °F (1954)
Degree Days  
Heating Degree Days 15    
Moisture  
Dew Point 47 °F    
Average Humidity 87    
Maximum Humidity 96    
Minimum Humidity 64    
Precipitation  
Precipitation 0.89 in - - ()
Sea Level Pressure  
Sea Level Pressure 29.57 in    
Wind  
Wind Speed 9 mph (SSW)    
Max Wind Speed 22 mph    
Max Gust Speed 32 mph    
Visibility 6 miles    
Events Rain    
Averages and records for this station are not official NWS values.
T = Trace of Precipitation, MM = Missing Value Source: NWS Daily Summary

Daily Weather History Graph

Daily Weather History Graph

Search for Another Location

Airport or City:

Trip Planner

Search our weather history database for the weather conditions in past years. The results will help you decide how hot, cold, wet, or windy it might be!

Date:

Astronomy

Sep. 13, 2011 Rise Set
Actual Time 7:20 AM AKDT 8:25 PM AKDT
Civil Twilight 6:37 AM AKDT 9:07 PM AKDT
Nautical Twilight 5:44 AM AKDT 10:00 PM AKDT
Astronomical Twilight 4:43 AM AKDT 11:00 PM AKDT
Moon 7:58 PM AKDT (9/13) 9:24 AM AKDT (9/13)
Length of Visible Light 14h 29m
Length of Day
13h 04m
Full, 98% of the Moon is Illuminated
Sep 13
Full
Sep 20
Last Quarter
Sep 27
New
Oct 3
First Quarter
Oct 11
Full

Hourly Weather History & Observations

Time (AKDT) Temp. Dew Point Humidity Pressure Visibility Wind Dir Wind Speed Gust Speed Precip Events Conditions
12:53 AM 46.9 °F 43.0 °F 86% 29.65 in 10.0 mi NNW 6.9 mph - 0.01 in   Overcast
1:53 AM 48.0 °F 43.0 °F 83% 29.63 in 10.0 mi ENE 8.1 mph - 0.00 in Rain Light Rain
2:53 AM 51.1 °F 44.1 °F 77% 29.59 in 10.0 mi West 6.9 mph - 0.00 in Rain Light Rain
3:53 AM 50.0 °F 44.1 °F 80% 29.56 in 10.0 mi Variable 5.8 mph - 0.00 in   Mostly Cloudy
4:53 AM 52.0 °F 43.0 °F 71% 29.54 in 10.0 mi North 5.8 mph - N/A   Overcast
5:53 AM 54.0 °F 42.1 °F 64% 29.51 in 10.0 mi NNW 9.2 mph - 0.00 in Rain Light Rain
6:53 AM 50.0 °F 45.0 °F 83% 29.49 in 10.0 mi NE 6.9 mph - 0.03 in Rain Light Rain
7:53 AM 50.0 °F 46.0 °F 86% 29.47 in 10.0 mi NNE 6.9 mph - 0.02 in Rain Light Rain
8:53 AM 51.1 °F 46.9 °F 86% 29.44 in 10.0 mi NNW 5.8 mph - 0.03 in Rain Light Rain
9:53 AM 51.1 °F 48.0 °F 89% 29.44 in 10.0 mi Calm Calm - 0.01 in   Overcast
10:53 AM 50.0 °F 48.0 °F 93% 29.48 in 5.0 mi SSW 5.8 mph - 0.04 in Rain Light Rain
11:36 AM 50.0 °F 48.2 °F 94% 29.50 in 4.0 mi South 3.5 mph - 0.08 in Rain Rain
11:53 AM 50.0 °F 48.9 °F 96% 29.51 in 3.0 mi Calm Calm - 0.12 in Rain Rain
12:09 PM 50.0 °F 48.2 °F 94% 29.51 in 4.0 mi Calm Calm - 0.02 in Rain Light Rain
12:19 PM 51.8 °F 48.2 °F 88% 29.52 in 4.0 mi ENE 3.5 mph - 0.04 in Rain Light Rain
12:35 PM 51.8 °F 48.2 °F 88% 29.52 in 4.0 mi South 11.5 mph 23.0 mph 0.07 in Rain Rain
12:53 PM 52.0 °F 48.9 °F 89% 29.54 in 3.0 mi South 13.8 mph 21.9 mph 0.11 in Rain Light Rain
12:59 PM 51.8 °F 48.2 °F 88% 29.55 in 2.5 mi South 15.0 mph 24.2 mph 0.01 in Rain Rain
1:07 PM 51.8 °F 48.2 °F 88% 29.56 in 2.0 mi South 15.0 mph 26.5 mph 0.04 in Rain Rain
1:39 PM 51.8 °F 50.0 °F 94% 29.57 in 3.0 mi SSW 16.1 mph 21.9 mph 0.10 in Rain Light Rain
1:49 PM 51.8 °F 50.0 °F 94% 29.58 in 2.5 mi SSW 19.6 mph 26.5 mph 0.12 in Rain Light Rain
1:53 PM 52.0 °F 50.0 °F 93% 29.58 in 2.5 mi SSW 18.4 mph 27.6 mph 0.13 in Rain Light Rain
2:06 PM 51.8 °F 50.0 °F 94% 29.59 in 4.0 mi South 16.1 mph 28.8 mph 0.01 in Rain Light Rain
2:20 PM 51.8 °F 50.0 °F 94% 29.59 in 2.5 mi SSW 21.9 mph 28.8 mph 0.04 in Rain Light Rain
2:29 PM 53.6 °F 50.0 °F 88% 29.60 in 5.0 mi South 13.8 mph 32.2 mph 0.05 in Rain Light Rain
2:37 PM 53.6 °F 48.2 °F 82% 29.61 in 6.0 mi South 13.8 mph 29.9 mph 0.06 in Rain Light Rain
2:53 PM 53.1 °F 48.9 °F 86% 29.62 in 9.0 mi SSW 17.3 mph 29.9 mph 0.06 in Rain Light Rain
3:53 PM 53.1 °F 48.0 °F 83% 29.62 in 10.0 mi SSW 19.6 mph 26.5 mph 0.02 in Rain Light Rain
4:53 PM 52.0 °F 48.0 °F 86% 29.62 in 6.0 mi SSW 11.5 mph 18.4 mph 0.04 in Rain Light Rain
5:53 PM 52.0 °F 46.9 °F 83% 29.61 in 9.0 mi South 8.1 mph 19.6 mph 0.04 in Rain Light Rain
6:53 PM 51.1 °F 46.9 °F 86% 29.62 in 10.0 mi SSW 15.0 mph 21.9 mph 0.01 in Rain Light Rain
7:53 PM 52.0 °F 45.0 °F 77% 29.63 in 10.0 mi SSW 15.0 mph 23.0 mph 0.00 in   Overcast
8:53 PM 51.1 °F 46.9 °F 86% 29.66 in 6.0 mi SSW 13.8 mph 19.6 mph 0.05 in Rain Light Rain
9:53 PM 50.0 °F 46.9 °F 89% 29.68 in 5.0 mi NE 5.8 mph - 0.02 in Rain Light Rain
10:53 PM 50.0 °F 46.9 °F 89% 29.69 in 6.0 mi Calm Calm - 0.05 in Rain Light Rain
11:53 PM 48.9 °F 46.9 °F 93% 29.71 in 4.0 mi Calm Calm - 0.10 in Rain Rain